[[{"header":{"parameterUnit":"m.s-1","parameterCategory":1,"la1":30.2991,"la2":30.254,"lo1":-89.0895,"lo2":-89.0444,"dy":0.0017,"dx":0.0017,"nx":28,"ny":28,"refTime":"2023-07-23T21:00:00:Z","depth":0,"parameterNumber":2,"parameterNumberName":"U-component_of_WINDS"},"data":[0,0,0,0,0,0,0,0,0,0,0,0,0,0,0,0,0,0,0,0,0,0,0,0,0,0,0,0,0,0,0,0,0,0,0,0,0,0,0,0,0,0,0,0,0,0,0,0,0,0,0,0,0,0,0,0,0,0,-0.2501,-0.25,0,-0.2414,-0.2413,-0.2412,-0.2365,-0.2365,-0.2365,-0.2365,-0.2273,-0.2271,-0.2269,0,0,0,0,0,0,0,0,0,0,0,0,0,-0.2626,-0.2624,-0.2501,-0.25,-0.2499,-0.2414,-0.2413,-0.2412,-0.2365,-0.2365,-0.2365,-0.2365,-0.2274,-0.2271,-0.2269,0,0,0,0,0,0,0,0,0,0,0,0,0,-0.2558,-0.2623,-0.2501,-0.2466,-0.2462,-0.2414,-0.2413,-0.2411,-0.2365,-0.2365,-0.2365,-0.2365,-0.2275,-0.2272,-0.2268,-0.2249,0,0,-0.2257,-0.2256,0,0,0,0,0,0,0,0,-0.2562,-0.2554,-0.2472,-0.2468,-0.2463,-0.24,-0.2423,-0.2357,-0.2365,-0.2402,-0.2365,-0.2365,-0.2316,-0.2309,-0.2293,-0.2245,-0.2241,-0.2257,-0.2255,-0.2253,-0.2252,0,0,0,0,0,0,0,-0.2567,-0.2557,-0.2466,-0.2471,-0.2466,-0.2453,-0.2444,-0.241,-0.236,-0.2399,-0.2395,-0.2385,-0.2313,-0.2296,-0.229,-0.2239,-0.2257,-0.2254,-0.2252,-0.225,-0.2172,-0.2172,0,0,0,0,0,0,-0.2578,-0.2562,-0.2469,-0.2464,-0.2514,-0.2451,-0.244,-0.2421,-0.2361,-0.2351,-0.2386,-0.2384,-0.2302,-0.2294,-0.2287,-0.2261,-0.2253,-0.225,-0.2248,-0.2172,-0.2172,-0.2172,0,0,0,0,0,0,-0.2581,-0.257,-0.2473,-0.2512,-0.2498,-0.2449,-0.2427,-0.2419,-0.2402,-0.2351,-0.2342,-0.2378,-0.2302,-0.2292,-0.2259,-0.2257,-0.2248,-0.2245,-0.2172,-0.2172,-0.2172,-0.2208,0,0,0,0,0,0,-0.2584,-0.2571,-0.2564,-0.2512,-0.2497,-0.2447,-0.2427,-0.2417,-0.2396,-0.2393,-0.2341,-0.2332,-0.2301,-0.2265,-0.2256,-0.2252,-0.2242,-0.2172,-0.2172,-0.2172,-0.2207,-0.221,-0.2212,0,0,0,0,0,-0.2589,-0.2577,-0.2563,-0.2553,-0.2486,-0.2447,-0.2438,-0.2403,-0.2396,-0.2388,-0.2356,-0.2334,-0.2259,-0.2262,-0.2251,-0.2246,-0.2172,-0.2172,-0.2172,-0.2206,-0.2209,-0.2212,0,0,0,0,0,0,-0.2628,-0.2569,-0.2554,-0.2524,-0.2491,-0.2439,-0.2428,-0.2408,-0.2375,-0.2373,-0.233,-0.2319,-0.2291,-0.2265,-0.2269,-0.2225,-0.2213,-0.2211,-0.2243,-0.2245,-0.2247,-0.2254,-0.224,0,0,0,0,0,-0.2633,-0.2607,-0.2557,-0.2536,-0.252,-0.2477,-0.2459,-0.2435,-0.2398,-0.2384,-0.2349,-0.2314,-0.2282,-0.2262,-0.223,-0.2204,-0.2192,-0.2195,-0.2198,-0.22,-0.2198,-0.2183,-0.2184,-0.2173,-0.2173,-0.2173,0,0,-0.2644,-0.2608,-0.2594,-0.2543,-0.2514,-0.2488,-0.2465,-0.2438,-0.2418,-0.2379,-0.2347,-0.232,-0.2278,-0.2249,-0.2234,-0.2226,-0.2199,-0.22,-0.2202,-0.2199,-0.2183,-0.2184,-0.2185,-0.2173,-0.2173,-0.2173,0,0,-0.2649,-0.262,-0.2599,-0.2572,-0.2529,-0.2501,-0.2496,-0.2448,-0.2429,-0.2396,-0.2367,-0.2342,-0.2289,-0.226,-0.2239,-0.2236,-0.2214,-0.2226,-0.2238,-0.2224,-0.2225,-0.2225,-0.2225,-0.2225,-0.2225,-0.2225,-0.2225,0,-0.2667,-0.2627,-0.2591,-0.2566,-0.2544,-0.251,-0.2489,-0.2463,-0.2412,-0.2398,-0.2391,-0.2324,-0.2293,-0.2257,-0.2257,-0.224,-0.2234,-0.2232,-0.2228,-0.2228,-0.2228,-0.2227,-0.2226,-0.2227,-0.2227,-0.2227,-0.2226,0,-0.2651,-0.2623,-0.2612,-0.2565,-0.2542,-0.2519,-0.248,-0.2461,-0.244,-0.2413,-0.238,-0.2342,-0.2302,-0.2292,-0.227,-0.2253,-0.225,-0.2236,-0.2223,-0.2231,-0.223,-0.2229,-0.223,-0.2229,-0.2228,-0.2228,0,0,-0.2677,-0.2612,-0.2609,-0.2588,-0.2539,-0.2517,-0.2493,-0.2455,-0.244,-0.2406,-0.2385,-0.2341,-0.2328,-0.2304,-0.2279,-0.2267,-0.2267,-0.2254,-0.2252,-0.2258,-0.2246,-0.2257,-0.2257,-0.2253,-0.2253,-0.2253,-0.225,0,-0.2676,-0.2631,-0.2599,-0.2567,-0.2541,-0.2509,-0.2488,-0.2456,-0.243,-0.2404,-0.2375,-0.2345,-0.233,-0.2316,-0.2302,-0.227,-0.2264,-0.227,-0.2233,-0.2232,-0.2244,-0.2256,-0.2267,-0.2266,-0.2249,-0.2249,-0.2249,0,-0.2667,-0.2637,-0.2602,-0.2558,-0.2546,-0.2527,-0.2491,-0.2467,-0.243,-0.2412,-0.2386,-0.2361,-0.2334,-0.2324,-0.2287,-0.2291,-0.2274,-0.2257,-0.2256,-0.225,-0.2241,-0.2251,-0.2265,-0.2265,-0.2247,-0.2247,-0.2247,0,-0.269,-0.264,-0.2613,-0.2596,-0.2543,-0.2531,-0.2509,-0.2472,-0.2452,-0.242,-0.2406,-0.2372,-0.2352,-0.2326,-0.2292,-0.2288,-0.2258,-0.2245,-0.2242,-0.2243,-0.2237,-0.2238,-0.2248,-0.2226,-0.2226,-0.2226,-0.2226,0,-0.2692,-0.2672,-0.2623,-0.2606,-0.2583,-0.2547,-0.2525,-0.25,-0.2468,-0.2445,-0.2415,-0.2395,-0.2352,-0.2326,-0.2299,-0.2273,-0.2264,-0.2249,-0.2242,-0.2251,-0.2253,-0.2239,-0.2238,-0.2226,-0.2226,-0.2226,-0.2226,0,-0.2713,-0.2679,-0.2648,-0.2601,-0.2589,-0.2574,-0.2534,-0.2517,-0.249,-0.2463,-0.2454,-0.2412,-0.238,-0.2344,-0.23,-0.2283,-0.2258,-0.2248,-0.2271,-0.2267,-0.2266,-0.2266,-0.2267,-0.2266,-0.2246,-0.2246,-0.2246,0,-0.2716,-0.27,-0.2653,-0.2636,-0.2615,-0.2588,-0.2568,-0.2532,-0.2513,-0.247,-0.2458,-0.2425,-0.2396,-0.2348,-0.2313,-0.2279,-0.2268,-0.2271,-0.2263,-0.2273,-0.2268,-0.227,-0.2268,-0.2273,-0.2273,-0.2274,-0.2274,0,-0.2725,-0.271,-0.2682,-0.2649,-0.2627,-0.2599,-0.2569,-0.2557,-0.2516,-0.2495,-0.2463,-0.2441,-0.2398,-0.2365,-0.2328,-0.2304,-0.2282,-0.2277,-0.2275,-0.2284,-0.2298,-0.2291,-0.2277,-0.2277,-0.2277,-0.2276,-0.2276,-0.2276,-0.2737,-0.2722,-0.2687,-0.2657,-0.2632,-0.2606,-0.2588,-0.256,-0.2533,-0.2495,-0.2475,-0.2444,-0.2409,-0.2357,-0.2334,-0.2309,-0.2301,-0.2298,-0.2297,-0.2296,-0.2299,-0.2303,-0.2302,-0.2301,-0.2301,-0.2301,-0.2301,0,-0.2745,-0.2721,-0.2695,-0.2655,-0.2633,-0.2616,-0.2583,-0.2565,-0.2538,-0.2507,-0.248,-0.2444,-0.2413,-0.2376,-0.2342,-0.2329,-0.2319,-0.2322,-0.2322,-0.2317,-0.2308,-0.2313,-0.2331,-0.2331,-0.2331,-0.2331,-0.2331,-0.2331,-0.2746,-0.272,-0.2701,-0.2662,-0.2638,-0.2608,-0.2591,-0.2567,-0.2542,-0.2504,-0.2478,-0.2455,-0.2422,-0.2385,-0.2356,-0.2346,-0.2335,-0.2341,-0.2328,-0.232,-0.2318,-0.2315,-0.232,-0.2339,-0.2339,-0.234,-0.234,-0.234]},{"header":{"parameterUnit":"m.s-1","parameterCategory":1,"la1":30.2991,"la2":30.254,"lo1":-89.0895,"lo2":-89.0444,"dy":0.0017,"dx":0.0017,"nx":28,"ny":28,"refTime":"2023-07-23T21:00:00:Z","depth":0,"parameterNumber":3,"parameterNumberName":"V-component_of_WINDS"},"data":[0,0,0,0,0,0,0,0,0,0,0,0,0,0,0,0,0,0,0,0,0,0,0,0,0,0,0,0,0,0,0,0,0,0,0,0,0,0,0,0,0,0,0,0,0,0,0,0,0,0,0,0,0,0,0,0,0,0,2.1737,2.1737,0,2.1696,2.1696,2.1695,2.1724,2.1725,2.1726,2.1727,2.1681,2.1678,2.1676,0,0,0,0,0,0,0,0,0,0,0,0,0,2.1835,2.1833,2.1737,2.1737,2.1736,2.1697,2.1696,2.1695,2.1723,2.1725,2.1727,2.1728,2.1682,2.1679,2.1676,0,0,0,0,0,0,0,0,0,0,0,0,0,2.1793,2.1833,2.1738,2.1746,2.1746,2.1697,2.1696,2.1695,2.1723,2.1725,2.1727,2.1729,2.1683,2.1679,2.1675,2.1614,0,0,2.1664,2.1663,0,0,0,0,0,0,0,0,2.1796,2.179,2.1745,2.1745,2.1745,2.1717,2.1713,2.1668,2.1723,2.1732,2.1728,2.173,2.1691,2.1687,2.1675,2.1612,2.161,2.1664,2.1662,2.166,2.1659,0,0,0,0,0,0,0,2.1799,2.1792,2.1721,2.1744,2.1745,2.175,2.1746,2.1705,2.1701,2.1731,2.1733,2.1728,2.1691,2.1678,2.1674,2.1609,2.1664,2.1661,2.1658,2.1657,2.1492,2.149,0,0,0,0,0,0,2.1801,2.1794,2.1722,2.172,2.1776,2.1747,2.1742,2.1724,2.1701,2.17,2.1726,2.173,2.1683,2.1678,2.1672,2.1597,2.166,2.1657,2.1655,2.1494,2.1492,2.1489,0,0,0,0,0,0,2.1803,2.1795,2.1724,2.1757,2.1749,2.1743,2.1722,2.1722,2.1709,2.1698,2.1697,2.1714,2.1685,2.1677,2.1628,2.1596,2.1655,2.1652,2.1497,2.1494,2.1491,2.1448,0,0,0,0,0,0,2.1806,2.1795,2.1773,2.1757,2.1747,2.1682,2.172,2.172,2.1703,2.1707,2.1686,2.1684,2.1686,2.1634,2.1625,2.1592,2.1649,2.15,2.1495,2.1492,2.1452,2.1444,2.1437,0,0,0,0,0,2.181,2.1762,2.1772,2.1763,2.1719,2.168,2.1674,2.1678,2.1701,2.1677,2.167,2.1685,2.1602,2.1628,2.1618,2.1585,2.1502,2.1497,2.1492,2.1456,2.1446,2.1437,0,0,0,0,0,0,2.1773,2.176,2.1771,2.1717,2.17,2.1685,2.1656,2.1668,2.1642,2.1646,2.1651,2.1646,2.1594,2.1585,2.1615,2.1523,2.1555,2.1548,2.1531,2.1521,2.1513,2.1516,2.1646,0,0,0,0,0,2.176,2.1731,2.172,2.1673,2.1664,2.1662,2.1645,2.1649,2.1631,2.1623,2.1612,2.1592,2.1562,2.1541,2.1513,2.1452,2.1446,2.1424,2.1416,2.1409,2.1402,2.1368,2.1357,2.1473,2.1473,2.1473,0,0,2.173,2.1719,2.17,2.1666,2.1653,2.1621,2.1655,2.162,2.1596,2.1617,2.157,2.1562,2.154,2.1484,2.1459,2.1474,2.1369,2.1403,2.1398,2.1395,2.1362,2.1351,2.1341,2.147,2.147,2.1471,0,0,2.1659,2.1649,2.1609,2.1595,2.1576,2.1574,2.1564,2.1548,2.1543,2.1496,2.1512,2.1482,2.143,2.1413,2.1397,2.132,2.1332,2.1311,2.1269,2.1235,2.1226,2.1217,2.1188,2.1177,2.1304,2.1304,2.1304,0,2.1624,2.1578,2.1586,2.1549,2.1533,2.1553,2.1511,2.1497,2.1468,2.1455,2.1474,2.1408,2.1395,2.1334,2.1316,2.1303,2.129,2.1312,2.1227,2.1219,2.1211,2.1183,2.1172,2.1302,2.1302,2.1302,2.1302,0,2.1535,2.1502,2.1472,2.1445,2.1425,2.1386,2.1386,2.1365,2.1372,2.1368,2.1319,2.1304,2.1272,2.1258,2.1264,2.1198,2.1208,2.1227,2.1258,2.1197,2.117,2.116,2.1298,2.1299,2.1299,2.13,0,0,2.1439,2.1417,2.1406,2.1393,2.1373,2.1347,2.1308,2.1278,2.1259,2.1239,2.1205,2.116,2.1177,2.1159,2.1163,2.1134,2.1071,2.1155,2.1155,2.1138,2.0995,2.098,2.0968,2.108,2.1078,2.1076,2.0997,0,2.1365,2.1299,2.1305,2.1241,2.121,2.1229,2.1194,2.1177,2.1172,2.1144,2.1139,2.1106,2.1132,2.1121,2.1093,2.1085,2.1042,2.1091,2.1046,2.1044,2.1049,2.0954,2.0938,2.0864,2.0986,2.0985,2.0983,0,2.1271,2.1248,2.1181,2.1165,2.1152,2.1122,2.1094,2.1068,2.1048,2.1046,2.1027,2.1036,2.0995,2.1029,2.0971,2.1004,2.0986,2.0979,2.0976,2.0971,2.1009,2.0944,2.084,2.0828,2.0968,2.0969,2.097,0,2.1204,2.1157,2.1111,2.11,2.1081,2.1058,2.1049,2.1032,2.1013,2.0988,2.0976,2.0946,2.093,2.0906,2.0906,2.0931,2.0846,2.0881,2.0842,2.0842,2.0821,2.0822,2.0712,2.0813,2.0814,2.0814,2.0814,0,2.1121,2.1078,2.1081,2.1052,2.1005,2.1012,2.0965,2.0957,2.0942,2.0911,2.0925,2.0895,2.0898,2.0867,2.0867,2.0818,2.0811,2.0807,2.0807,2.0804,2.0804,2.0791,2.0795,2.0811,2.0812,2.0812,2.0813,0,2.1038,2.1039,2.0989,2.0975,2.097,2.0936,2.0923,2.0895,2.0892,2.0852,2.0843,2.0837,2.0802,2.08,2.0759,2.0759,2.0699,2.0705,2.0705,2.0706,2.0666,2.0669,2.0541,2.0524,2.0639,2.0638,2.0637,0,2.0983,2.0952,2.0934,2.0915,2.0905,2.0874,2.0855,2.086,2.0839,2.0815,2.0789,2.0755,2.0728,2.0671,2.0662,2.063,2.0635,2.0592,2.063,2.0628,2.0632,2.0633,2.0629,2.0584,2.0583,2.0582,2.0581,0,2.0886,2.0887,2.0861,2.0833,2.0811,2.0789,2.0769,2.0752,2.0755,2.0731,2.0696,2.0675,2.0633,2.0599,2.0568,2.0557,2.0568,2.057,2.0558,2.0554,2.0555,2.0552,2.0683,2.0572,2.0573,2.0573,2.0574,2.0574,2.0814,2.0786,2.0769,2.0738,2.0724,2.0705,2.0678,2.0672,2.0643,2.061,2.0615,2.0575,2.0555,2.0515,2.0501,2.0469,2.0483,2.0468,2.0463,2.0459,2.0454,2.0562,2.0464,2.0464,2.0464,2.0464,2.0464,0,2.0715,2.0706,2.0677,2.0649,2.0624,2.064,2.0619,2.0596,2.0561,2.0543,2.0517,2.0475,2.0442,2.0431,2.0398,2.0374,2.0378,2.0365,2.0365,2.0362,2.0444,2.0456,2.0362,2.0362,2.0362,2.0362,2.0362,2.0362,2.0661,2.0614,2.0613,2.0559,2.0549,2.0512,2.0498,2.0479,2.0465,2.0418,2.0391,2.0385,2.0368,2.0334,2.0304,2.0301,2.0288,2.0271,2.0271,2.0346,2.0357,2.0366,2.0378,2.0269,2.0269,2.0192,2.0191,2.0191]}]]